sat.trackr.live / text

‹ back to catalog

STARLINK-33969

NORAD 63855 · 2025-093V

PAYLOAD ACTIVE UNKNOWN

§ Identity

Operator
Country
US
Launch date
2025-05-07
Launch site
AFETR
Launch vehicle
Mass (kg)
RCS (m²)

Purposes: comms

External: N2YO · Heavens-Above · Gunter

§ Orbital elements

Epoch: 2026-09-20T20:57:28.260000Z

Period
94.27 min
Inclination
43.0050°
Eccentricity
0.0001158
Mean motion
15.27590402 rev/d
Perigee alt
482.2 km
Apogee alt
483.8 km
Semi-major
6,861.2 km
B*
5.0931e-4
RAAN
55.5293°
Arg perigee
271.7911°
Mean anomaly
88.2808°
Rev number
7,760

§ Raw data

STARLINK-339691 63855U 25093V   26263.87324375  .00013784  00000+0  50931-3 0  99972 63855  43.0050  55.5293 0001158 271.7911  88.2808 15.27590402 77602

JSON: /api/v1/satellites/63855 · /tle

For live sub-satellite position, see the globe view (requires WebGL).

§ Visibility from observer

Set your observer location to see the next 7 days of passes ≥ 10°. The values pass through the URL so the page stays shareable.

No JS? Fill the form by hand. The geolocation button needs JavaScript.